Location: La Savane
(18.0962°N, 63.0646°W)
Time: 17:57:16
(UTC+00:00)

CZ-4 R/B - Pass Details

Date: 29 October 2020
Orbit: 532 x 598 km, 97.7° (Epoch: 28 November)

Event Time Altitude Azimuth Distance (km) Brightness Sun altitude
Rises 23:39:22 0° 191° (SSW) 2,731 5.1 -28.5°
Reaches altitude 10° 23:41:48 10° 205° (SSW) 1,826 4.3 -29.1°
Maximum altitude 23:45:02 24° 261° (W) 1,140 3.5 -29.8°
Drops below altitude 10° 23:48:15 10° 316° (NW) 1,801 4.3 -30.6°
Sets 23:50:38 0° 331° (NNW) 2,686 5.1 -31.1°
